Weather History for Georgetown, TX

Change the Weather History Date:

Saturday, January 1, 2000

  Actual Average Record
Temperature  
Mean Temperature 54 °F -  
Max Temperature 73 °F 58 °F 84 °F (2006)
Min Temperature 35 °F 37 °F 28 °F (2002)
Degree Days  
Heating Degree Days 11    
Growing Degree Days 4 (Base 50)    
Moisture  
Dew Point 46 °F    
Average Humidity 74    
Maximum Humidity 88    
Minimum Humidity 57    
Precipitation  
Precipitation 655.35 in - - ()
Sea Level Pressure  
Sea Level Pressure 29.98 in    
Wind  
Wind Speed 5 mph (South)    
Max Wind Speed 22 mph    
Max Gust Speed 29 mph    
Visibility 10 miles    
Events      
Averages and records for this station are not official NWS values.
T = Trace of Precipitation, MM = Missing Value Source: NWS Daily Summary

Daily Weather History Graph

Daily Weather History Graph

Search for Another Location

Airport:

Trip Planner

Search our weather history database for the weather conditions in past years. The results will help you decide how hot, cold, wet, or windy it might be!

Date:

Astronomy

Jan. 01, 2000 Rise Set
Actual Time 7:28 AM CST 5:40 PM CST
Civil Twilight 7:01 AM CST 6:06 PM CST
Nautical Twilight 6:31 AM CST 6:36 PM CST
Astronomical Twilight 6:02 AM CST 7:06 PM CST
Moon 2:59 AM CST (1/1) 2:23 PM CST (1/1)
Length of Visible Light 11h 05m
Length of Day
10h 12m
Waning Crescent, 21% of the Moon is Illuminated
Jan 1
Waning Crescent
Jan 6
New
Jan 14
First Quarter
Jan 20
Full
Jan 28
Last Quarter

Hourly Weather History & Observations

Time (CST) Temp. Windchill Dew Point Humidity Pressure Visibility Wind Dir Wind Speed Gust Speed Precip Events Conditions
12:15 AM 42.8 °F - 35.6 °F 76% 30.05 in 10.0 mi Calm Calm - N/A   Clear
12:35 AM 42.8 °F - 35.6 °F 76% 30.04 in 10.0 mi Calm Calm - N/A   Clear
12:55 AM 42.8 °F - 33.8 °F 70% 30.03 in 10.0 mi Calm Calm - N/A   Clear
1:15 AM 42.8 °F 41.1 °F 35.6 °F 76% 30.04 in 10.0 mi SSW 3.5 mph - N/A   Clear
1:35 AM 42.8 °F - 35.6 °F 76% 30.03 in 10.0 mi Calm Calm - N/A   Clear
1:55 AM 42.8 °F - 35.6 °F 76% 30.04 in 10.0 mi Calm Calm - N/A   Clear
2:15 AM 41.0 °F - 33.8 °F 76% 30.04 in 10.0 mi Calm Calm - N/A   Clear
2:35 AM 39.2 °F - 33.8 °F 81% 30.03 in 10.0 mi Calm Calm - N/A   Clear
2:55 AM 39.2 °F - 33.8 °F 81% 30.03 in 10.0 mi Calm Calm - N/A   Clear
3:15 AM 39.2 °F - 33.8 °F 81% 30.03 in 10.0 mi Calm Calm - N/A   Clear
3:35 AM 39.2 °F - 33.8 °F 81% 30.03 in 10.0 mi Calm Calm - N/A   Clear
3:55 AM 39.2 °F - 33.8 °F 81% 30.02 in 10.0 mi Calm Calm - N/A   Clear
4:15 AM 39.2 °F - 33.8 °F 81% 30.02 in 10.0 mi Calm Calm - N/A   Clear
4:35 AM 39.2 °F - 32.0 °F 75% 30.01 in 10.0 mi Calm Calm - N/A   Clear
4:55 AM 39.2 °F - 33.8 °F 81% 30.01 in 10.0 mi Calm Calm - N/A   Clear
5:15 AM 37.4 °F - 33.8 °F 87% 30.01 in 10.0 mi Calm Calm - N/A   Clear
5:35 AM 39.2 °F - 33.8 °F 81% 30.01 in 10.0 mi Calm Calm - N/A   Clear
5:55 AM 37.4 °F - 32.0 °F 81% 30.02 in 10.0 mi Calm Calm - N/A   Clear
6:35 AM 37.4 °F - 32.0 °F 81% 30.02 in 10.0 mi Calm Calm - N/A   Clear
6:55 AM 37.4 °F - 32.0 °F 81% 30.02 in 10.0 mi Calm Calm - N/A   Clear
7:15 AM 37.4 °F - 30.2 °F 75% 30.02 in 10.0 mi Calm Calm - N/A   Clear
7:35 AM 35.6 °F - 30.2 °F 81% 30.03 in 10.0 mi Calm Calm - N/A   Clear
7:55 AM 37.4 °F - 33.8 °F 87% 30.03 in 10.0 mi Calm Calm - N/A   Clear
8:15 AM 41.0 °F - 35.6 °F 81% 30.03 in 10.0 mi Calm Calm - N/A   Clear
8:35 AM 44.6 °F - 35.6 °F 71% 30.03 in 10.0 mi Calm Calm - N/A   Clear
8:55 AM 46.4 °F 45.2 °F 37.4 °F 71% 30.04 in 10.0 mi South 3.5 mph - N/A   Scattered Clouds
9:15 AM 48.2 °F - 37.4 °F 66% 30.04 in 10.0 mi SSE 3.5 mph - N/A   Overcast
9:35 AM 51.8 °F - 41.0 °F 67% 30.04 in 10.0 mi SSE 6.9 mph - N/A   Mostly Cloudy
9:55 AM 55.4 °F - 46.4 °F 72% 30.04 in 10.0 mi South 11.5 mph - N/A   Mostly Cloudy
10:15 AM 55.4 °F - 46.4 °F 72% 30.04 in 10.0 mi South 6.9 mph - N/A   Overcast
10:35 AM 57.2 °F - 51.8 °F 82% 30.04 in 10.0 mi South 16.1 mph - N/A   Overcast
10:55 AM 57.2 °F - 51.8 °F 82% 30.03 in - South 13.8 mph - N/A   Overcast
11:15 AM 57.2 °F - 53.6 °F 88% 30.03 in 7.0 mi South 15.0 mph 19.6 mph N/A   Overcast
11:35 AM 59.0 °F - 55.4 °F 88% 30.01 in 8.0 mi South 12.7 mph - N/A   Overcast
11:55 AM 59.0 °F - 55.4 °F 88% 30.00 in 7.0 mi South 11.5 mph - N/A   Mostly Cloudy
12:15 PM 59.0 °F - 55.4 °F 88% 29.99 in 7.0 mi South 12.7 mph 17.3 mph N/A   Overcast
12:35 PM 60.8 °F - 55.4 °F 82% 29.98 in 10.0 mi South 9.2 mph - N/A   Overcast
12:55 PM 60.8 °F - 55.4 °F 82% 29.96 in 10.0 mi South 15.0 mph 24.2 mph N/A   Overcast
1:15 PM 60.8 °F - 55.4 °F 82% 29.94 in 10.0 mi South 16.1 mph 25.3 mph N/A   Overcast
1:35 PM 62.6 °F - 57.2 °F 82% 29.93 in 10.0 mi South 16.1 mph 27.6 mph N/A   Overcast
1:55 PM 64.4 °F - 57.2 °F 77% 29.92 in 10.0 mi South 16.1 mph 26.5 mph N/A   Overcast
2:15 PM 66.2 °F - 57.2 °F 73% 29.92 in 10.0 mi SSW 16.1 mph 24.2 mph N/A   Scattered Clouds
2:35 PM 69.8 °F - 57.2 °F 64% 29.91 in 10.0 mi South 19.6 mph - N/A   Clear
2:55 PM 71.6 °F - 57.2 °F 60% 29.90 in 10.0 mi South 18.4 mph 23.0 mph N/A   Clear
3:15 PM 71.6 °F - 57.2 °F 60% 29.89 in 10.0 mi South 17.3 mph 23.0 mph N/A   Clear
3:35 PM 71.6 °F - 57.2 °F 60% 29.89 in 10.0 mi South 19.6 mph 26.5 mph N/A   Clear
3:55 PM 73.4 °F - 57.2 °F 57% 29.89 in 10.0 mi South 15.0 mph 23.0 mph N/A   Clear
4:15 PM 73.4 °F - 57.2 °F 57% 29.88 in 10.0 mi South 16.1 mph 28.8 mph N/A   Clear
4:35 PM 73.4 °F - 57.2 °F 57% 29.87 in 10.0 mi South 21.9 mph 27.6 mph N/A   Clear
4:55 PM 73.4 °F - 59.0 °F 61% 29.87 in 10.0 mi South 15.0 mph 21.9 mph N/A   Clear
5:15 PM 73.4 °F - 59.0 °F 61% 29.87 in 10.0 mi South 12.7 mph 18.4 mph N/A   Clear
5:35 PM 71.6 °F - 57.2 °F 60% 29.87 in 10.0 mi South 11.5 mph - N/A   Clear
5:55 PM 71.6 °F - 57.2 °F 60% 29.88 in 10.0 mi South 6.9 mph - N/A   Clear
6:15 PM 69.8 °F - 57.2 °F 64% 29.88 in 10.0 mi South 8.1 mph - N/A   Clear
6:35 PM 68.0 °F - 57.2 °F 68% 29.89 in 10.0 mi South 8.1 mph - N/A   Clear
6:55 PM 69.8 °F - 59.0 °F 68% 29.90 in 10.0 mi South 12.7 mph - N/A   Clear
7:15 PM 71.6 °F - 59.0 °F 64% 29.89 in 10.0 mi South 12.7 mph 18.4 mph N/A   Clear
7:35 PM 69.8 °F - 59.0 °F 68% 29.89 in 10.0 mi South 10.4 mph 17.3 mph N/A   Clear
7:55 PM 69.8 °F - 59.0 °F 68% 29.89 in 10.0 mi South 15.0 mph 19.6 mph N/A   Clear
8:15 PM 69.8 °F - 60.8 °F 73% 29.89 in 10.0 mi South 15.0 mph 24.2 mph N/A   Clear
8:35 PM 68.0 °F - 60.8 °F 78% 29.91 in 10.0 mi South 13.8 mph 23.0 mph N/A   Clear
8:55 PM 68.0 °F - 60.8 °F 78% 29.91 in 10.0 mi South 16.1 mph 21.9 mph N/A   Clear
9:15 PM 66.2 °F - 60.8 °F 83% 29.92 in 10.0 mi South 18.4 mph 24.2 mph N/A   Scattered Clouds
9:35 PM 66.2 °F - 60.8 °F 83% 29.92 in 10.0 mi South 17.3 mph 28.8 mph N/A   Overcast
9:55 PM 66.2 °F - 60.8 °F 83% 29.92 in 10.0 mi South 15.0 mph 24.2 mph N/A   Overcast
10:15 PM 66.2 °F - 62.6 °F 88% 29.92 in 10.0 mi South 21.9 mph 25.3 mph N/A   Overcast
10:35 PM 66.2 °F - 62.6 °F 88% 29.92 in 10.0 mi South 20.7 mph 27.6 mph N/A   Overcast
10:55 PM 66.2 °F - 62.6 °F 88% 29.91 in 10.0 mi South 18.4 mph 24.2 mph N/A   Overcast
11:15 PM 68.0 °F - 62.6 °F 83% 29.91 in 10.0 mi South 13.8 mph 20.7 mph N/A   Overcast
11:35 PM 68.0 °F - 62.6 °F 83% 29.91 in 10.0 mi South 12.7 mph 20.7 mph N/A   Overcast
11:55 PM 68.0 °F - 62.6 °F 83% 29.91 in 10.0 mi South 16.1 mph 23.0 mph N/A   Overcast